When you browse on this site, cookies collect data to enhance your experience and personalize the content and advertising you see.
Visit our Privacy Policy to learn more. By continuing to use the site, you agree to this use of cookies and data.
  • In United Kingdom
  • List of Countries
  • For 7 days
  • Water Temperature
  • Weather Map
  • Weather Widgets
  • user-avatar
    Login

    Hourly Weather Litherland

    Today, 17 October, Thursday

    Time Temperature Precipitation Wind Pressure Humidity
    00:00 +8°C° 0 mm 3 mps 751 mmHg 86%
    01:00 +8°C° 0 mm 3 mps 751 mmHg 87%
    02:00 +7°C° 0 mm 3 mps 751 mmHg 87%
    03:00 +6°C° 0 mm 4 mps 751 mmHg 88%
    04:00 +6°C° 0 mm 4 mps 751 mmHg 88%
    05:00 +6°C° 0 mm 4 mps 751 mmHg 87%
    06:00 +6°C° 0 mm 5 mps 751 mmHg 87%
    07:00 +7°C° 0 mm 5 mps 750 mmHg 84%
    08:00 +8°C° 0 mm 5 mps 750 mmHg 80%
    09:00 +9°C° 0 mm 6 mps 750 mmHg 77%
    10:00 +10°C° 0 mm 6 mps 750 mmHg 73%
    11:00 +11°C° 0 mm 6 mps 750 mmHg 69%
    12:00 +13°C° 0 mm 6 mps 749 mmHg 66%
    13:00 +13°C° 0 mm 6 mps 749 mmHg 67%
    14:00 +13°C° 0 mm 6 mps 748 mmHg 68%
    15:00 +13°C° 0 mm 6 mps 748 mmHg 70%
    16:00 +13°C° 0.3 mm 6 mps 748 mmHg 73%
    17:00 +11°C° 0.3 mm 6 mps 747 mmHg 76%
    18:00 +10°C° 0.3 mm 6 mps 747 mmHg 80%
    19:00 +10°C° 0.3 mm 6 mps 747 mmHg 81%
    20:00 +9°C° 0.3 mm 5 mps 747 mmHg 82%
    21:00 +9°C° 0.3 mm 5 mps 747 mmHg 83%
    22:00 +9°C° 0.1 mm 5 mps 747 mmHg 83%
    23:00 +8°C° 0.1 mm 5 mps 747 mmHg 84%

    Tomorrow, 18 October, Friday

    Time Temperature Precipitation Wind Pressure Humidity
    00:00 +8°C° 0.1 mm 4 mps 747 mmHg 85%
    01:00 +8°C° 0 mm 4 mps 746 mmHg 86%
    02:00 +8°C° 0 mm 4 mps 746 mmHg 87%
    03:00 +8°C° 0 mm 3 mps 745 mmHg 88%
    04:00 +8°C° 0.1 mm 3 mps 745 mmHg 88%
    05:00 +8°C° 0.1 mm 3 mps 745 mmHg 89%
    06:00 +8°C° 0.1 mm 3 mps 745 mmHg 89%
    07:00 +8°C° 0.2 mm 3 mps 745 mmHg 87%
    08:00 +9°C° 0.2 mm 3 mps 745 mmHg 84%
    09:00 +10°C° 0.2 mm 3 mps 745 mmHg 82%
    10:00 +11°C° 0.3 mm 4 mps 746 mmHg 78%
    11:00 +11°C° 0.3 mm 4 mps 746 mmHg 74%
    12:00 +12°C° 0.3 mm 5 mps 746 mmHg 70%
    13:00 +12°C° 0.3 mm 4 mps 745 mmHg 70%
    14:00 +12°C° 0.3 mm 4 mps 745 mmHg 71%
    15:00 +12°C° 0.3 mm 4 mps 745 mmHg 71%
    16:00 +11°C° 0.7 mm 4 mps 745 mmHg 75%
    17:00 +10°C° 0.7 mm 4 mps 745 mmHg 80%
    18:00 +8°C° 0.7 mm 4 mps 745 mmHg 84%
    19:00 +8°C° 0.4 mm 4 mps 745 mmHg 85%
    20:00 +8°C° 0.4 mm 4 mps 745 mmHg 86%
    21:00 +8°C° 0.4 mm 4 mps 745 mmHg 87%
    22:00 +7°C° 0.2 mm 4 mps 745 mmHg 88%
    23:00 +7°C° 0.2 mm 4 mps 745 mmHg 89%

    Day after tomorrow, 19 October, Saturday

    Time Temperature Precipitation Wind Pressure Humidity
    00:00 +7°C° 0.2 mm 4 mps 745 mmHg 91%
    01:00 +8°C° 0 mm 3 mps 745 mmHg 91%
    02:00 +8°C° 0 mm 3 mps 745 mmHg 92%
    03:00 +8°C° 0 mm 3 mps 745 mmHg 92%
    04:00 +8°C° 0 mm 3 mps 745 mmHg 91%
    05:00 +8°C° 0 mm 2 mps 745 mmHg 90%
    06:00 +8°C° 0 mm 2 mps 746 mmHg 89%
    07:00 +8°C° 0 mm 2 mps 746 mmHg 88%
    08:00 +9°C° 0 mm 2 mps 747 mmHg 87%
    09:00 +9°C° 0 mm 2 mps 747 mmHg 85%
    10:00 +10°C° 0 mm 2 mps 748 mmHg 81%
    11:00 +12°C° 0 mm 2 mps 748 mmHg 78%
    12:00 +11°C° 0 mm 3 mps 749 mmHg 74%
    13:00 +11°C° 0 mm 3 mps 749 mmHg 74%
    14:00 +11°C° 0 mm 3 mps 750 mmHg 73%
    15:00 +11°C° 0 mm 3 mps 750 mmHg 73%
    16:00 +11°C° 0 mm 3 mps 751 mmHg 76%
    17:00 +10°C° 0 mm 3 mps 751 mmHg 80%
    18:00 +9°C° 0 mm 2 mps 752 mmHg 83%
    19:00 +9°C° 0 mm 2 mps 752 mmHg 83%
    20:00 +9°C° 0 mm 2 mps 753 mmHg 83%
    21:00 +8°C° 0 mm 2 mps 754 mmHg 83%
    22:00 +8°C° 0 mm 2 mps 754 mmHg 83%
    23:00 +9°C° 0 mm 1 mps 755 mmHg 84%

    20 October, Sunday

    Time Temperature Precipitation Wind Pressure Humidity
    00:00 +9°C° 0 mm 1 mps 755 mmHg 84%
    01:00 +9°C° 0.1 mm 1 mps 755 mmHg 85%
    02:00 +8°C° 0.1 mm 1 mps 756 mmHg 85%
    03:00 +8°C° 0.1 mm 1 mps 756 mmHg 85%
    04:00 +8°C° 0 mm 1 mps 757 mmHg 85%
    05:00 +8°C° 0 mm 1 mps 757 mmHg 86%
    06:00 +8°C° 0 mm 1 mps 758 mmHg 86%
    07:00 +9°C° 0 mm 1 mps 758 mmHg 83%
    08:00 +9°C° 0 mm 1 mps 759 mmHg 80%
    09:00 +10°C° 0 mm 1 mps 759 mmHg 77%
    10:00 +10°C° 0 mm 2 mps 760 mmHg 72%
    11:00 +11°C° 0 mm 3 mps 760 mmHg 68%
    12:00 +12°C° 0 mm 4 mps 760 mmHg 63%
    13:00 +11°C° 0 mm 4 mps 760 mmHg 63%
    14:00 +11°C° 0 mm 4 mps 761 mmHg 63%
    15:00 +11°C° 0 mm 4 mps 761 mmHg 63%
    16:00 +10°C° 0 mm 4 mps 761 mmHg 67%
    17:00 +8°C° 0 mm 4 mps 762 mmHg 71%
    18:00 +8°C° 0 mm 4 mps 762 mmHg 75%
    19:00 +9°C° 0 mm 3 mps 763 mmHg 76%
    20:00 +9°C° 0 mm 3 mps 764 mmHg 76%
    21:00 +9°C° 0 mm 3 mps 764 mmHg 77%
    22:00 +9°C° 0 mm 3 mps 765 mmHg 78%
    23:00 +9°C° 0 mm 3 mps 765 mmHg 80%

    21 October, Monday

    Time Temperature Precipitation Wind Pressure Humidity
    00:00 +8°C° 0 mm 3 mps 766 mmHg 81%
    01:00 +8°C° 0 mm 3 mps 766 mmHg 83%
    02:00 +8°C° 0 mm 2 mps 766 mmHg 85%
    03:00 +7°C° 0 mm 2 mps 766 mmHg 87%
    04:00 +7°C° 0 mm 2 mps 767 mmHg 87%
    05:00 +7°C° 0 mm 2 mps 767 mmHg 87%
    06:00 +6°C° 0 mm 2 mps 768 mmHg 87%
    07:00 +7°C° 0 mm 3 mps 768 mmHg 84%
    08:00 +8°C° 0 mm 3 mps 768 mmHg 81%
    09:00 +9°C° 0 mm 3 mps 769 mmHg 78%
    10:00 +10°C° 0 mm 3 mps 769 mmHg 73%
    11:00 +10°C° 0 mm 2 mps 769 mmHg 67%
    12:00 +12°C° 0 mm 2 mps 769 mmHg 62%
    13:00 +12°C° 0 mm 2 mps 769 mmHg 61%
    14:00 +12°C° 0 mm 2 mps 769 mmHg 61%
    15:00 +12°C° 0 mm 2 mps 769 mmHg 60%
    16:00 +10°C° 0 mm 2 mps 769 mmHg 65%
    17:00 +9°C° 0 mm 3 mps 769 mmHg 69%
    18:00 +8°C° 0 mm 3 mps 769 mmHg 74%
    19:00 +7°C° 0 mm 3 mps 769 mmHg 76%
    20:00 +7°C° 0 mm 3 mps 769 mmHg 78%
    21:00 +5°C° 0 mm 3 mps 769 mmHg 80%
    22:00 +5°C° 0 mm 3 mps 769 mmHg 82%
    23:00 +5°C° 0 mm 3 mps 769 mmHg 84%

    22 October, Tuesday

    Time Temperature Precipitation Wind Pressure Humidity
    00:00 +4°C° 0 mm 3 mps 768 mmHg 85%
    01:00 +4°C° 0 mm 3 mps 768 mmHg 86%
    02:00 +4°C° 0 mm 3 mps 767 mmHg 87%
    03:00 +4°C° 0 mm 3 mps 767 mmHg 88%
    04:00 +4°C° 0 mm 3 mps 767 mmHg 88%
    05:00 +4°C° 0 mm 3 mps 766 mmHg 89%
    06:00 +4°C° 0 mm 3 mps 766 mmHg 90%
    07:00 +5°C° 0 mm 4 mps 765 mmHg 88%
    08:00 +6°C° 0 mm 4 mps 765 mmHg 85%
    09:00 +8°C° 0 mm 4 mps 764 mmHg 83%
    10:00 +8°C° 0.1 mm 4 mps 764 mmHg 84%
    11:00 +8°C° 0.1 mm 4 mps 763 mmHg 85%
    12:00 +10°C° 0.1 mm 4 mps 763 mmHg 87%
    13:00 +10°C° 0.2 mm 4 mps 762 mmHg 88%
    14:00 +11°C° 0.2 mm 4 mps 761 mmHg 90%
    15:00 +11°C° 0.2 mm 4 mps 760 mmHg 91%
    16:00 +11°C° 0 mm 4 mps 760 mmHg 93%
    17:00 +12°C° 0 mm 4 mps 760 mmHg 94%
    18:00 +12°C° 0 mm 4 mps 759 mmHg 95%
    19:00 +12°C° 0 mm 4 mps 759 mmHg 96%
    20:00 +12°C° 0 mm 4 mps 759 mmHg 96%
    21:00 +12°C° 0 mm 4 mps 759 mmHg 97%
    22:00 +12°C° 0 mm 4 mps 759 mmHg 97%
    23:00 +12°C° 0 mm 4 mps 759 mmHg 96%
    Show more